Wind_Speed
24 23 21 21 22 23 24 26 27 26 24 23 23 25 27 28 30 32 34 36 40 46 52 58 65 74 84 94 103 110 116 119 119 118 117 115 115 115 115 115 115 114 112 111 111 111 109 109 109 108 107 106 104 102 101 99 98 96 96 95 94 93 92
23 21 17 15 16 17 19 20 21 21 19 19 20 22 22 23 24 25 27 29 32 37 42 47 52 59 68 78 87 96 103 109 113 116 117 117 117 116 116 116 116 116 114 112 111 111 109 109 110 110 109 108 107 105 104 103 101 100 99 98 97 95 94
22 20 17 14 12 13 14 15 16 17 16 17 17 18 18 18 19 19 21 23 25 29 33 37 42 48 55 63 71 79 88 95 101 106 111 114 116 117 117 117 117 117 115 113 112 111 110 109 109 109 109 109 108 108 107 105 104 103 102 101 100 98 97
22 20 17 14 12 11 12 12 13 14 14 15 15 16 16 16 16 16 16 16 18 20 24 28 33 38 43 50 56 64 72 80 87 94 100 105 110 113 114 115 116 117 116 115 113 112 111 111 110 110 109 109 109 109 108 107 106 105 105 104 102 101 99
23 21 18 15 13 11 11 10 11 11 12 13 14 15 16 15 15 15 14 13 13 13 15 19 23 28 33 37 43 49 55 62 70 77 84 91 97 102 105 108 111 113 115 116 115 114 113 113 113 113 112 111 111 111 109 108 107 107 107 106 105 103 102
23 22 20 17 14 11 10 9 9 9 10 11 14 16 16 16 15 15 14 13 12 11 11 12 15 19 23 27 31 35 41 46 53 60 66 73 79 85 90 95 100 104 108 111 112 113 113 114 114 114 114 114 114 114 113 112 111 111 110 109 108 106 105
23 22 20 18 16 13 10 8 8 9 10 11 13 15 17 16 15 14 14 14 13 12 11 11 12 13 15 18 21 25 29 34 39 45 51 56 62 68 74 79 85 90 95 100 104 106 109 110 112 113 114 115 116 116 115 114 114 113 113 112 111 109 108
24 22 20 19 17 14 12 10 8 9 10 11 12 14 15 16 15 14 14 14 14 14 13 12 13 13 14 15 16 18 20 23 26 31 35 40 46 51 57 62 68 73 78 84 90 95 98 102 104 107 109 112 114 114 114 114 114 115 115 114 114 112 111
25 23 21 20 18 15 13 11 10 9 9 10 11 12 13 14 14 13 13 14 14 14 14 14 15 15 16 16 17 18 19 20 22 24 26 29 33 36 40 45 49 54 60 66 72 78 83 88 93 96 99 103 107 109 110 113 115 116 116 116 115 114 113
23 23 22 21 19 17 15 13 11 10 10 10 10 10 11 12 12 13 13 13 14 14 15 15 16 16 17 18 19 20 21 22 23 24 25 27 28 30 32 34 37 40 44 48 54 59 65 72 77 81 85 90 96 101 105 109 112 114 116 117 117 116 115
22 21 21 22 21 19 17 15 13 12 11 11 11 11 11 12 12 13 13 13 14 14 15 15 16 17 18 19 20 20 21 22 23 24 25 26 27 28 29 30 31 33 35 37 40 44 49 55 59 63 68 74 80 86 92 98 103 107 111 114 117 117 116
25 22 21 21 22 21 20 18 15 14 13 13 12 12 13 13 14 14 14 14 14 15 15 16 16 17 18 18 19 20 21 22 23 24 24 25 26 26 27 27 28 30 31 32 34 36 40 42 45 49 53 57 63 69 75 82 88 93 99 105 110 114 114
27 25 23 21 22 22 21 20 18 15 14 14 14 14 15 15 15 15 15 15 15 16 16 17 17 18 18 19 19 20 20 21 23 24 25 25 26 26 26 26 27 28 29 30 31 32 34 36 38 40 42 45 49 55 62 68 73 77 83 90 97 102 107
26 26 25 23 22 21 21 21 20 18 16 14 14 15 16 17 17 17 17 18 18 18 18 19 19 20 20 20 20 20 21 22 22 24 25 26 26 26 26 26 26 26 27 29 30 30 30 32 34 36 37 39 42 46 52 58 60 64 69 76 83 89 96
25 26 26 24 22 21 20 20 20 20 18 16 15 14 15 16 18 19 19 20 20 20 21 21 21 22 22 22 22 22 22 22 23 25 26 26 26 26 26 26 25 26 27 29 29 29 29 30 31 32 32 34 36 39 43 47 50 53 58 64 71 77 83
24 25 26 25 24 22 21 19 19 20 20 19 17 16 16 15 16 18 20 21 21 22 22 23 23 23 23 23 23 23 23 23 24 25 26 26 25 25 25 25 26 27 28 28 28 28 28 29 29 29 29 29 30 31 34 37 40 43 46 52 58 64 69
23 24 25 25 25 24 23 21 19 19 20 20 19 18 18 17 17 17 18 21 22 23 24 24 24 24 24 25 25 24 24 24 25 25 26 26 25 25 25 25 26 27 28 28 28 28 28 29 29 29 28 28 28 28 29 32 34 35 37 40 45 51 56
23 24 24 25 25 25 25 23 21 19 19 19 18 18 18 18 19 19 18 19 22 24 25 25 25 25 25 25 26 26 26 26 26 26 26 25 25 24 24 25 26 26 27 28 28 28 29 29 29 29 28 28 28 29 29 30 30 31 32 33 35 39 43
24 25 25 25 25 25 25 24 23 21 19 19 18 17 17 18 19 20 20 18 19 22 24 24 25 25 25 25 26 27 27 27 26 26 26 25 24 24 23 24 26 26 27 28 28 28 29 29 29 30 30 29 30 30 30 29 30 30 30 30 30 32 35
24 25 25 25 25 25 25 25 24 23 21 20 18 17 17 17 18 19 19 16 15 17 20 22 22 23 23 24 24 25 26 26 26 25 25 25 24 23 24 26 27 28 28 28 28 29 29 29 29 30 31 31 31 31 30 30 30 30 29 29 30 30 31
25 26 26 26 25 25 25 25 25 24 23 21 20 18 17 16 17 17 17 13 11 12 14 16 18 19 20 21 22 23 24 25 25 24 24 25 24 24 26 28 28 29 28 28 28 28 28 29 29 30 31 31 31 31 30 29 29 29 29 30 30 30 30
27 28 28 28 27 26 26 26 25 25 24 22 20 18 17 16 15 15 14 11 8 9 11 12 13 15 17 18 20 21 22 23 24 24 24 25 25 25 27 28 29 29 29 28 28 28 28 28 29 30 30 31 31 30 29 28 27 27 28 29 29 29 30
30 30 30 30 30 29 28 27 27 26 25 23 21 18 17 16 15 13 12 11 8 8 9 10 11 12 13 15 16 18 20 21 22 23 24 25 25 26 27 29 30 30 30 29 29 29 28 28 28 28 29 29 30 30 29 28 26 26 27 26 25 27 30
32 32 32 32 32 32 31 30 29 28 26 23 21 18 16 15 14 12 10 9 8 7 7 8 9 10 11 12 13 14 16 18 20 21 23 25 26 26 28 29 30 30 30 30 30 29 29 28 28 27 28 28 28 29 29 28 28 27 26 24 24 25 28
31 32 32 32 32 32 32 31 29 28 26 24 21 18 16 15 13 12 10 9 8 7 6 6 7 7 8 9 10 11 13 14 16 18 20 23 25 26 27 28 29 30 30 31 30 30 29 28 28 28 28 28 28 28 28 28 28 29 28 26 25 25 26
29 28 28 28 28 28 28 28 27 26 25 24 21 18 16 14 13 12 11 10 8 7 7 6 6 6 6 6 7 8 9 11 13 14 17 19 22 24 25 26 27 28 29 29 29 29 28 28 28 29 30 29 29 29 28 28 29 30 30 29 28 26 25
28 26 25 25 24 24 24 24 24 24 23 23 21 19 17 15 14 13 12 11 10 9 8 7 7 6 6 6 6 7 8 9 10 11 13 16 18 20 22 23 24 25 26 26 26 26 27 28 29 31 31 31 31 30 29 29 30 31 30 30 29 29 28
28 27 25 24 24 24 24 24 24 23 22 22 21 19 18 17 15 14 13 13 12 11 10 9 8 8 7 7 7 7 8 9 9 11 12 14 16 17 19 20 22 23 24 25 25 26 26 27 29 30 31 32 32 31 31 31 31 32 31 30 30 30 29
27 27 26 25 25 24 24 25 25 24 22 21 21 20 19 19 18 16 15 14 14 13 12 11 11 10 10 9 9 9 10 10 10 11 12 14 15 17 18 19 20 21 22 23 24 25 27 28 29 29 30 30 31 30 31 32 32 33 33 32 31 30 30
26 26 26 25 26 25 25 24 25 25 24 23 21 20 20 20 20 19 17 16 16 15 15 13 13 12 12 12 12 12 12 11 11 12 13 14 15 17 18 19 19 20 20 21 21 22 24 26 26 28 29 30 30 30 30 31 32 32 33 33 32 31 31
25 26 26 25 25 25 25 25 24 24 24 23 22 21 20 21 22 21 19 18 17 17 17 16 14 14 14 14 14 14 13 12 11 12 13 14 16 17 17 18 19 20 20 21 21 21 22 23 23 24 26 27 29 30 31 32 32 32 32 32 32 32 31
24 24 25 25 25 24 24 24 24 23 22 22 22 21 19 19 22 22 21 19 19 18 18 17 16 15 15 15 15 15 15 13 12 12 13 15 16 17 17 17 18 19 20 21 22 22 23 23 22 22 23 24 26 27 28 29 30 30 31 31 31 31 31
23 23 23 23 23 23 23 23 23 22 21 20 20 20 19 18 20 22 22 21 20 19 19 18 16 16 16 16 16 16 16 15 14 13 13 14 15 16 17 18 18 18 19 20 21 22 23 23 23 22 23 25 25 25 26 26 26 26 27 28 29 30 31
20 21 21 22 22 23 23 22 22 21 21 20 20 20 19 18 19 21 22 22 21 20 19 18 17 16 16 16 17 17 18 17 15 14 14 14 14 15 16 17 18 18 18 19 20 21 22 22 22 22 23 25 26 26 26 25 25 25 24 24 26 27 29
22 20 21 22 22 22 22 22 21 20 19 19 20 20 19 19 19 20 21 22 22 22 21 19 18 17 16 17 17 18 18 18 17 16 16 15 15 14 14 15 16 18 18 19 19 20 20 21 22 22 23 24 25 25 25 25 24 24 24 24 25 27 28
25 23 22 22 22 23 23 22 22 20 18 18 19 20 19 19 19 20 21 22 22 23 23 22 20 18 17 17 18 18 19 19 18 18 17 17 16 16 15 14 15 16 18 19 19 19 19 20 21 22 23 24 24 25 25 25 24 24 23 24 25 27 28
Wind_Direction
321 313 300 285 275 266 258 253 252 252 252 255 259 261 265 268 270 269 267 264 258 252 248 244 241 239 238 238 238 238 239 240 240 241 241 241 242 243 244 244 245 245 244 243 243 243 243 243 244 244 243 243 242 241 241 241 241 242 243 244 244 244 244
337 332 320 302 284 270 260 255 252 250 251 255 258 262 267 270 272 270 267 264 260 254 249 245 241 239 237 237 237 237 237 238 239 240 241 241 241 241 242 243 244 245 244 244 244 244 244 244 244 245 244 244 243 242 242 242 241 241 242 242 243 243 244
349 345 338 325 304 283 269 262 255 252 252 255 258 261 265 269 274 275 272 267 261 255 250 245 242 239 237 236 236 235 236 236 237 238 239 239 240 241 241 242 243 244 244 244 244 244 245 244 245 245 245 245 244 243 243 242 242 242 242 241 241 242 242
358 355 349 339 324 305 287 274 264 258 256 256 256 256 258 265 272 276 277 275 268 260 253 247 243 240 238 236 235 234 234 235 235 236 237 238 239 240 240 241 242 243 243 244 244 244 245 245 245 245 245 245 245 244 243 243 243 243 243 242 241 241 241
1 0 356 349 337 322 305 287 273 266 261 257 253 251 252 258 265 269 272 275 273 267 258 250 245 241 239 238 237 235 234 234 235 235 236 237 238 239 240 240 241 242 243 243 243 243 244 245 245 245 245 246 246 245 244 244 244 244 244 243 242 242 241
1 2 0 357 349 337 321 301 281 269 262 255 251 249 249 253 259 264 266 267 266 264 257 248 243 240 238 237 235 235 234 234 234 234 235 237 238 239 239 240 241 242 242 243 243 243 243 244 245 245 246 246 246 246 245 245 245 245 245 244 244 243 242
359 359 0 359 355 348 337 319 295 277 264 255 250 250 251 254 257 261 264 262 261 258 252 245 238 234 233 231 231 231 232 232 233 233 234 235 237 238 239 240 241 242 243 243 243 243 243 243 244 245 245 246 246 246 246 246 245 245 245 245 245 244 243
359 357 356 355 353 350 343 332 313 293 279 266 258 255 256 258 260 262 262 260 257 253 249 243 237 232 228 227 226 226 229 230 231 232 233 234 235 237 238 239 240 242 243 243 243 244 244 244 244 244 245 245 245 246 246 246 246 246 246 245 245 244 243
1 359 357 352 348 345 341 335 324 309 295 282 272 266 262 261 263 264 262 257 253 250 245 241 237 234 231 229 227 226 226 227 229 230 231 233 234 235 236 237 238 240 241 242 243 243 244 244 244 245 245 245 245 246 246 246 246 246 245 245 245 244 244
358 359 359 356 349 342 335 330 324 316 304 293 284 277 269 264 264 265 263 257 251 247 244 242 240 238 237 236 235 234 233 232 232 232 232 234 235 236 236 237 237 238 239 240 241 241 242 242 243 243 244 244 244 245 245 245 245 245 245 245 245 244 244
356 355 356 357 355 349 339 327 318 311 304 296 287 279 273 268 265 264 262 258 252 248 245 244 244 244 244 244 243 243 244 244 243 241 240 240 240 240 240 240 240 240 240 240 240 240 240 241 242 243 243 243 243 243 244 244 244 244 244 244 244 244 243
356 355 354 353 353 353 348 339 326 312 302 295 288 282 276 271 267 265 262 258 254 250 247 245 245 246 247 248 248 248 249 251 251 251 249 248 248 247 245 243 242 242 242 242 241 241 242 242 243 244 245 244 243 242 243 243 243 243 243 243 243 243 243
355 354 353 350 348 349 349 348 344 334 316 302 291 284 280 275 271 267 263 260 256 252 249 246 245 245 245 245 246 247 248 249 251 253 254 253 253 252 250 247 245 243 243 244 244 244 244 245 245 246 247 247 245 244 243 243 243 243 243 242 242 241 241
357 353 351 347 344 343 344 346 347 347 340 325 307 293 284 278 274 270 266 262 259 255 251 249 247 247 247 247 247 247 248 248 249 251 253 254 253 253 252 250 247 245 245 245 245 244 245 245 246 246 246 246 245 245 245 244 244 244 244 242 241 240 240
358 356 354 351 345 340 340 341 341 342 343 339 329 315 298 285 276 271 267 263 260 257 255 252 250 249 248 248 249 249 250 250 250 250 252 253 253 252 252 250 248 246 245 245 245 244 244 245 247 247 247 247 246 246 247 246 246 245 245 244 242 241 241
353 353 353 354 353 347 341 338 336 334 334 335 332 328 320 307 291 278 269 264 260 258 256 253 251 251 250 250 250 250 250 251 251 252 253 254 253 252 250 249 247 245 245 245 245 244 243 245 247 248 248 248 248 248 249 249 248 247 248 247 245 243 242
343 345 346 349 353 353 348 343 336 331 329 330 330 327 323 319 313 298 281 268 261 257 255 254 252 251 251 251 251 251 251 252 252 253 254 254 253 251 248 246 245 244 244 245 245 244 243 244 246 248 248 249 250 251 253 255 254 253 253 252 249 247 244
334 336 337 339 344 348 348 346 341 333 328 327 328 327 322 318 317 313 299 279 264 257 255 253 252 252 251 251 252 252 252 253 253 253 253 253 252 248 245 244 244 243 244 245 245 244 244 244 247 250 251 253 254 254 255 258 259 259 258 256 253 251 248
325 328 330 332 335 338 340 343 343 339 332 326 324 324 324 320 318 316 309 290 268 256 253 253 253 253 252 252 252 252 252 253 252 251 252 252 250 246 243 241 241 241 242 243 245 246 247 248 250 252 254 256 257 257 258 258 258 258 258 256 254 252 250
316 319 322 325 326 327 330 335 338 338 335 329 323 322 322 321 320 320 315 298 273 257 253 254 255 255 254 253 252 251 251 251 251 249 249 249 249 245 240 239 239 239 241 243 245 247 249 250 251 253 255 255 256 257 256 256 256 256 256 255 253 253 251
306 308 312 316 318 320 322 326 330 333 333 330 326 322 321 321 322 324 323 308 280 263 259 258 259 260 258 255 252 250 249 249 248 247 246 247 247 242 238 237 239 241 242 245 247 249 250 251 252 252 253 254 253 252 252 252 253 254 254 253 252 252 250
297 299 302 306 309 312 315 317 320 324 327 328 326 323 321 321 323 327 329 321 293 272 268 268 268 266 263 259 255 251 249 247 246 244 243 245 245 242 240 240 241 243 245 247 249 251 251 251 251 251 251 251 250 248 248 250 252 253 254 254 253 251 250
291 293 295 298 301 304 306 308 311 314 318 320 321 320 319 320 322 327 333 331 315 288 275 271 270 268 265 261 256 251 249 247 246 244 243 244 245 244 243 243 244 245 247 248 250 251 251 250 250 250 250 248 247 246 247 248 249 251 254 256 253 249 248
288 289 291 294 296 298 300 301 303 305 308 311 313 314 314 314 315 321 329 333 331 316 297 284 276 270 266 263 260 255 251 248 245 243 243 244 245 244 245 245 246 247 249 250 251 251 251 250 249 248 247 246 245 244 245 246 247 249 252 253 250 248 247
289 289 291 292 295 296 297 298 298 299 300 302 304 305 305 305 305 308 314 321 326 326 319 309 299 289 279 272 267 262 258 253 248 244 242 242 243 244 245 245 246 248 248 249 250 250 250 249 248 246 246 245 244 243 243 244 246 247 249 250 250 249 249
294 295 295 296 297 297 298 298 298 296 294 294 295 295 293 293 294 294 297 302 307 311 313 311 308 305 298 290 280 272 265 260 255 250 245 243 243 243 244 244 245 247 248 249 249 249 248 247 245 244 244 244 244 244 243 244 245 246 248 250 250 250 250
297 298 299 299 301 302 302 301 299 297 292 290 289 287 282 280 281 282 282 285 289 293 296 296 296 298 300 300 294 285 277 269 263 258 253 250 249 248 247 247 246 247 248 249 249 249 247 246 244 243 243 244 244 245 245 245 246 246 247 249 249 249 249
297 298 299 301 302 303 304 303 301 299 295 290 287 282 274 270 269 271 272 274 277 280 283 283 284 284 287 290 291 288 284 278 272 266 261 257 255 254 254 253 252 251 250 250 249 249 248 247 247 246 246 247 247 248 247 247 247 248 248 248 248 247 247
298 297 297 298 299 299 299 300 301 300 297 293 287 281 271 264 261 262 264 266 268 271 273 275 276 276 278 281 282 281 281 280 278 274 269 264 260 258 258 258 257 256 255 253 252 251 249 249 249 249 249 249 250 250 249 249 250 250 250 250 248 247 246
298 297 294 292 292 293 293 295 296 296 296 293 289 281 271 261 256 255 258 260 262 265 267 268 270 272 274 277 278 279 279 280 280 279 274 269 264 260 258 258 259 259 259 258 256 254 253 252 251 249 249 249 250 249 249 249 250 250 251 252 251 249 247
299 296 293 291 289 289 291 292 292 291 291 289 287 282 273 261 253 250 253 257 260 263 266 267 267 268 270 272 273 274 276 277 280 282 280 275 269 264 260 258 257 257 258 259 259 257 256 256 254 252 251 250 249 249 249 248 249 249 250 251 252 252 250
298 298 296 293 291 289 290 291 291 290 288 285 282 279 274 264 254 249 249 254 258 262 265 267 268 267 267 267 268 269 271 274 277 281 282 279 274 269 264 260 257 255 254 255 256 256 257 257 255 252 250 251 250 250 250 250 250 249 249 248 249 250 250
293 297 299 299 296 293 291 290 289 289 288 283 277 274 273 267 257 250 249 251 255 259 263 266 268 268 266 265 264 264 264 266 269 274 278 278 276 271 267 263 260 258 256 254 254 255 255 256 256 252 249 250 251 251 252 252 250 249 249 248 247 247 247
295 294 297 299 299 296 293 290 287 286 284 279 273 269 269 267 260 253 250 250 253 257 261 264 266 266 264 263 261 260 260 260 263 269 274 277 277 273 268 264 262 261 260 259 258 257 257 257 256 253 249 249 251 252 252 253 253 251 249 248 247 247 246
309 299 296 299 301 300 297 292 288 284 280 274 269 267 266 265 261 254 251 250 251 254 257 260 263 263 262 260 259 258 258 258 260 265 271 274 276 275 270 266 263 261 260 259 259 260 260 259 257 254 250 249 250 252 253 254 254 253 251 250 249 249 248
317 306 299 299 301 303 301 297 291 286 279 270 266 265 265 264 260 255 252 251 251 252 254 257 259 260 260 258 257 256 256 256 258 261 265 269 272 273 271 268 265 263 261 259 258 258 259 259 259 256 253 251 250 251 252 252 252 252 252 251 251 252 251
Height
5304 5301 5299 5298 5297 5298 5299 5301 5303 5305 5307 5309 5310 5310 5309 5309 5307 5306 5304 5303 5302 5303 5304 5307 5311 5315 5320 5325 5330 5338 5346 5353 5361 5367 5374 5381 5387 5392 5397 5402 5406 5412 5426 5436 5438 5443 5453 5458 5460 5465 5472 5480 5487 5493 5498 5503 5509 5513 5516 5520 5526 5532 5537
5303 5299 5297 5296 5295 5295 5296 5298 5300 5302 5303 5304 5305 5305 5305 5304 5303 5301 5299 5298 5296 5296 5296 5298 5301 5304 5307 5311 5316 5324 5332 5339 5346 5353 5359 5366 5371 5377 5382 5387 5391 5398 5409 5420 5425 5431 5439 5445 5447 5451 5459 5466 5472 5478 5484 5489 5495 5500 5504 5508 5514 5520 5525
5302 5299 5296 5295 5294 5294 5295 5296 5298 5299 5300 5301 5301 5301 5301 5300 5299 5297 5295 5294 5292 5291 5291 5292 5294 5296 5298 5301 5306 5313 5318 5324 5331 5336 5343 5349 5355 5361 5368 5373 5378 5384 5394 5405 5414 5419 5425 5431 5435 5439 5446 5451 5456 5462 5468 5474 5481 5486 5490 5496 5502 5508 5514
5302 5299 5297 5295 5294 5294 5294 5295 5296 5297 5298 5298 5298 5298 5297 5297 5296 5294 5293 5291 5290 5289 5288 5289 5290 5291 5292 5295 5298 5303 5307 5312 5318 5323 5329 5336 5341 5347 5355 5361 5365 5371 5380 5390 5399 5407 5413 5418 5421 5425 5431 5436 5440 5447 5454 5461 5467 5471 5475 5482 5489 5495 5502
5302 5299 5297 5295 5294 5293 5293 5293 5294 5295 5295 5295 5295 5295 5294 5294 5293 5292 5291 5290 5289 5288 5287 5287 5287 5288 5289 5291 5294 5297 5301 5305 5310 5314 5319 5325 5330 5336 5343 5348 5352 5357 5365 5374 5384 5394 5400 5403 5406 5411 5417 5422 5426 5432 5440 5447 5453 5456 5461 5467 5475 5482 5489
5303 5300 5297 5295 5294 5293 5292 5292 5292 5292 5293 5293 5293 5292 5292 5292 5291 5290 5290 5289 5288 5287 5287 5286 5286 5287 5287 5289 5291 5294 5297 5300 5304 5308 5312 5317 5321 5326 5332 5336 5340 5345 5352 5360 5370 5380 5386 5388 5393 5398 5403 5408 5412 5418 5425 5431 5436 5441 5446 5453 5461 5469 5476
5303 5300 5298 5296 5294 5293 5292 5291 5291 5291 5290 5290 5290 5290 5290 5290 5290 5289 5288 5288 5287 5287 5287 5287 5287 5287 5287 5288 5290 5292 5294 5297 5300 5303 5307 5311 5314 5318 5323 5327 5331 5336 5342 5348 5357 5365 5371 5375 5379 5383 5389 5394 5397 5401 5409 5417 5422 5428 5434 5440 5446 5453 5459
5303 5301 5298 5296 5295 5293 5292 5291 5290 5289 5289 5289 5288 5288 5288 5288 5288 5288 5287 5287 5286 5286 5286 5286 5286 5287 5287 5288 5289 5291 5293 5295 5298 5300 5303 5306 5309 5313 5316 5320 5324 5328 5332 5338 5345 5352 5358 5362 5364 5368 5374 5379 5381 5387 5398 5405 5408 5411 5417 5422 5428 5435 5442
5304 5301 5298 5296 5295 5293 5291 5290 5289 5288 5288 5287 5287 5287 5287 5287 5287 5286 5286 5286 5285 5285 5285 5285 5286 5286 5287 5288 5289 5290 5292 5294 5296 5298 5301 5303 5305 5308 5311 5315 5318 5321 5325 5329 5334 5340 5345 5347 5351 5355 5360 5364 5368 5376 5384 5388 5387 5391 5399 5405 5410 5418 5426
5305 5302 5299 5297 5294 5293 5291 5290 5288 5287 5287 5286 5285 5285 5285 5285 5285 5285 5285 5284 5284 5284 5284 5284 5285 5285 5286 5287 5288 5289 5291 5292 5294 5296 5298 5300 5302 5305 5307 5310 5313 5315 5319 5322 5326 5331 5334 5335 5339 5344 5346 5350 5356 5362 5366 5368 5369 5375 5384 5389 5393 5402 5411
5305 5302 5300 5297 5294 5292 5290 5289 5287 5286 5285 5285 5284 5283 5283 5283 5283 5283 5283 5283 5283 5283 5283 5283 5284 5284 5285 5286 5287 5288 5290 5291 5292 5294 5296 5297 5299 5301 5304 5306 5308 5311 5314 5317 5320 5323 5324 5327 5331 5333 5335 5339 5344 5348 5350 5352 5354 5358 5366 5371 5376 5386 5397
5304 5302 5299 5297 5294 5292 5290 5288 5286 5285 5284 5283 5283 5282 5281 5281 5281 5281 5280 5281 5281 5281 5281 5282 5282 5283 5284 5284 5285 5286 5288 5289 5290 5291 5293 5294 5296 5298 5300 5302 5305 5307 5309 5312 5314 5316 5318 5321 5323 5324 5326 5329 5333 5336 5337 5338 5339 5344 5350 5355 5360 5370 5380
5304 5301 5299 5297 5294 5292 5290 5288 5286 5284 5282 5281 5281 5280 5280 5279 5279 5278 5278 5278 5278 5279 5279 5280 5280 5281 5281 5282 5283 5284 5285 5286 5287 5288 5290 5291 5293 5294 5296 5298 5301 5303 5305 5307 5309 5311 5314 5315 5316 5317 5319 5321 5323 5325 5325 5326 5329 5333 5336 5340 5346 5354 5362
5304 5301 5298 5296 5294 5292 5290 5288 5285 5283 5282 5280 5279 5278 5277 5277 5276 5276 5276 5276 5276 5276 5277 5277 5278 5278 5279 5280 5280 5281 5282 5283 5284 5285 5286 5288 5289 5291 5293 5294 5296 5299 5301 5303 5304 5307 5309 5309 5310 5311 5313 5314 5315 5316 5316 5318 5321 5323 5324 5327 5333 5339 5343
5304 5301 5298 5296 5293 5291 5289 5287 5285 5283 5281 5279 5278 5276 5275 5274 5274 5273 5273 5273 5273 5273 5274 5274 5275 5275 5276 5276 5277 5278 5279 5280 5281 5282 5283 5284 5286 5287 5289 5291 5293 5294 5296 5298 5300 5302 5304 5304 5305 5306 5307 5308 5309 5310 5310 5312 5313 5314 5316 5318 5323 5327 5331
5304 5301 5298 5296 5293 5290 5288 5286 5284 5282 5280 5278 5276 5275 5273 5272 5271 5270 5270 5269 5269 5270 5270 5270 5271 5272 5272 5273 5274 5275 5276 5277 5277 5278 5279 5281 5282 5284 5285 5287 5289 5290 5292 5294 5295 5297 5299 5299 5300 5302 5303 5304 5304 5305 5305 5306 5307 5309 5310 5312 5315 5319 5323
5303 5301 5298 5295 5292 5290 5287 5285 5283 5281 5279 5277 5275 5273 5271 5270 5268 5267 5266 5266 5266 5266 5266 5266 5267 5268 5269 5269 5270 5271 5272 5273 5274 5275 5276 5278 5279 5280 5282 5283 5285 5286 5288 5290 5291 5293 5294 5295 5296 5297 5298 5299 5300 5301 5301 5301 5302 5305 5306 5307 5309 5312 5314
5301 5299 5297 5294 5292 5289 5286 5284 5282 5280 5277 5275 5273 5271 5270 5268 5266 5264 5263 5262 5261 5261 5262 5262 5263 5264 5265 5266 5266 5267 5268 5269 5270 5272 5273 5274 5276 5277 5279 5280 5281 5282 5284 5285 5286 5288 5289 5290 5291 5292 5293 5294 5295 5296 5297 5297 5299 5300 5301 5302 5304 5305 5306
5299 5297 5295 5293 5290 5288 5286 5283 5281 5278 5276 5274 5272 5270 5268 5266 5264 5262 5260 5258 5257 5257 5258 5258 5259 5260 5261 5262 5262 5263 5264 5265 5267 5268 5269 5271 5272 5273 5275 5277 5277 5278 5279 5280 5282 5283 5285 5286 5287 5288 5289 5290 5291 5292 5293 5294 5295 5295 5296 5297 5298 5298 5299
5297 5295 5293 5291 5289 5286 5284 5282 5280 5277 5275 5272 5270 5268 5266 5264 5262 5260 5257 5255 5254 5254 5255 5255 5256 5256 5257 5258 5258 5259 5260 5261 5263 5264 5266 5267 5268 5270 5271 5272 5272 5273 5275 5276 5278 5279 5281 5282 5283 5284 5285 5286 5287 5288 5289 5290 5291 5291 5292 5292 5293 5293 5294
5294 5292 5290 5288 5287 5284 5282 5280 5278 5276 5273 5271 5269 5266 5264 5262 5260 5258 5255 5253 5252 5252 5252 5253 5253 5254 5254 5255 5255 5256 5257 5258 5259 5261 5262 5263 5264 5266 5266 5267 5268 5269 5271 5272 5274 5275 5277 5278 5279 5281 5282 5283 5284 5285 5286 5286 5287 5287 5287 5288 5289 5289 5290
5291 5289 5287 5285 5284 5282 5280 5278 5276 5274 5272 5269 5267 5265 5263 5261 5259 5257 5254 5252 5251 5251 5251 5251 5251 5252 5252 5252 5252 5253 5253 5255 5256 5257 5258 5259 5260 5261 5262 5263 5264 5266 5267 5269 5270 5272 5273 5275 5276 5277 5278 5279 5280 5281 5282 5283 5283 5283 5283 5284 5285 5285 5286
5287 5285 5284 5282 5280 5278 5277 5275 5273 5271 5270 5268 5265 5263 5261 5259 5258 5256 5254 5252 5250 5250 5249 5249 5249 5249 5249 5249 5249 5250 5251 5252 5253 5254 5255 5256 5257 5258 5259 5259 5261 5262 5264 5265 5267 5268 5270 5271 5272 5273 5275 5276 5276 5277 5278 5279 5279 5279 5279 5280 5281 5281 5282
5282 5281 5279 5278 5276 5274 5273 5271 5270 5268 5267 5265 5263 5262 5260 5258 5256 5255 5253 5252 5250 5249 5248 5248 5247 5247 5247 5247 5247 5247 5248 5249 5250 5251 5252 5253 5253 5254 5255 5256 5257 5259 5260 5262 5263 5265 5266 5268 5269 5270 5271 5272 5272 5273 5274 5274 5275 5275 5276 5277 5277 5278 5278
5278 5276 5275 5273 5272 5269 5268 5267 5266 5264 5263 5262 5261 5259 5258 5256 5255 5254 5252 5251 5250 5249 5248 5247 5246 5246 5246 5246 5246 5246 5246 5246 5247 5248 5249 5249 5250 5251 5252 5253 5254 5255 5257 5258 5260 5261 5263 5264 5265 5266 5267 5267 5268 5269 5270 5270 5271 5271 5272 5273 5274 5274 5275
5273 5272 5270 5269 5267 5266 5264 5262 5261 5260 5259 5258 5258 5257 5255 5254 5253 5252 5251 5250 5249 5248 5247 5246 5246 5245 5245 5245 5244 5244 5244 5245 5245 5245 5246 5247 5247 5248 5249 5250 5251 5252 5253 5254 5256 5257 5258 5260 5261 5261 5262 5262 5264 5264 5265 5266 5267 5267 5268 5269 5270 5271 5272
5268 5267 5266 5265 5263 5262 5260 5258 5257 5256 5255 5255 5254 5253 5253 5252 5251 5250 5250 5249 5248 5247 5246 5245 5245 5244 5244 5243 5243 5243 5243 5243 5243 5244 5244 5244 5245 5245 5246 5247 5248 5248 5249 5250 5252 5253 5254 5255 5255 5256 5257 5258 5259 5260 5261 5262 5262 5263 5264 5265 5267 5268 5269
5264 5263 5262 5261 5259 5258 5256 5255 5254 5253 5252 5251 5250 5250 5249 5249 5248 5248 5247 5247 5246 5245 5245 5244 5243 5243 5242 5242 5242 5242 5242 5242 5242 5242 5242 5242 5242 5243 5243 5243 5244 5245 5246 5246 5247 5248 5249 5250 5251 5252 5253 5254 5255 5257 5258 5258 5259 5259 5260 5262 5263 5264 5266
5260 5259 5258 5257 5255 5254 5253 5251 5250 5249 5248 5247 5247 5246 5246 5245 5245 5245 5245 5244 5244 5243 5243 5242 5242 5241 5241 5241 5240 5240 5240 5240 5240 5240 5240 5240 5240 5240 5241 5241 5241 5242 5242 5243 5244 5245 5245 5246 5247 5248 5249 5250 5251 5253 5254 5255 5255 5256 5257 5258 5259 5261 5262
5257 5255 5254 5253 5252 5251 5250 5249 5247 5245 5244 5243 5243 5242 5242 5242 5242 5242 5242 5242 5241 5241 5240 5240 5240 5240 5239 5239 5239 5239 5238 5238 5238 5238 5238 5238 5238 5238 5238 5238 5239 5239 5239 5240 5240 5241 5242 5242 5243 5244 5245 5246 5247 5248 5250 5250 5251 5252 5253 5254 5256 5257 5259
5253 5252 5251 5250 5249 5247 5246 5245 5244 5242 5241 5240 5239 5238 5238 5238 5238 5238 5239 5239 5238 5238 5238 5238 5238 5237 5237 5237 5237 5237 5236 5236 5236 5235 5235 5235 5235 5235 5235 5235 5236 5236 5236 5237 5237 5238 5238 5239 5240 5241 5241 5242 5243 5244 5245 5246 5247 5248 5249 5251 5252 5253 5255
5250 5248 5247 5246 5245 5244 5242 5241 5240 5239 5238 5237 5236 5235 5235 5234 5234 5235 5235 5235 5235 5235 5235 5235 5235 5235 5235 5235 5234 5234 5234 5234 5234 5233 5233 5233 5233 5232 5232 5233 5233 5233 5233 5233 5234 5234 5235 5235 5236 5237 5238 5238 5239 5240 5240 5242 5243 5244 5245 5246 5248 5249 5251
5246 5245 5243 5242 5241 5239 5238 5237 5236 5235 5234 5233 5232 5232 5231 5231 5231 5231 5232 5232 5232 5232 5232 5232 5232 5232 5232 5232 5232 5232 5232 5232 5231 5231 5231 5231 5230 5230 5230 5230 5230 5230 5230 5230 5230 5231 5231 5232 5232 5234 5234 5235 5236 5236 5237 5238 5239 5240 5241 5242 5244 5245 5246
5243 5242 5240 5238 5237 5235 5234 5233 5232 5231 5230 5230 5229 5229 5228 5228 5228 5228 5228 5229 5229 5229 5229 5229 5229 5229 5229 5229 5229 5229 5229 5229 5229 5229 5229 5228 5228 5228 5227 5227 5227 5227 5227 5227 5227 5228 5228 5228 5229 5230 5231 5231 5232 5232 5233 5234 5235 5236 5238 5239 5240 5240 5241
5237 5237 5236 5235 5233 5232 5230 5229 5228 5227 5227 5226 5226 5225 5225 5225 5225 5225 5225 5225 5226 5226 5226 5226 5226 5226 5226 5226 5226 5226 5226 5226 5226 5226 5226 5226 5226 5225 5225 5225 5224 5224 5224 5224 5224 5225 5225 5225 5225 5226 5227 5228 5228 5229 5230 5231 5232 5233 5234 5235 5236 5236 5237
5233 5232 5232 5231 5230 5228 5227 5225 5224 5223 5223 5223 5222 5222 5222 5222 5222 5221 5222 5222 5222 5222 5223 5223 5223 5223 5223 5223 5223 5223 5223 5223 5223 5223 5223 5223 5223 5223 5222 5222 5222 5221 5221 5221 5221 5222 5222 5222 5222 5222 5223 5224 5224 5225 5226 5227 5228 5229 5230 5231 5232 5232 5233